2015-04-17 00:08:19 r, 20.72m,0000000000Hz,0001046201c,0000002.270s, 018.3C,00002191
2015-04-17 00:18:19 r, 20.71m,0000000001Hz,0001037034c,0000002.251s, 018.3C,00002191
2015-04-17 00:28:18 r, 20.17m,0000000001Hz,0000636345c,0000001.381s, 018.6C,00002191
2015-04-17 00:38:19 r, 20.00m,0000000001Hz,0000545031c,0000001.183s, 018.3C,00002191
2015-04-17 00:48:19 r, 20.24m,0000000001Hz,0000681698c,0000001.479s, 017.7C,00002191
2015-04-17 00:58:19 r, 20.10m,0000000001Hz,0000596065c,0000001.294s, 017.0C,00002191
2015-04-17 01:08:19 r, 19.38m,0000000001Hz,0000309987c,0000000.673s, 017.0C,00002191
2015-04-17 01:18:19 r, 19.60m,0000000001Hz,0000378287c,0000000.821s, 017.0C,00002191
2015-04-17 01:28:19 r, 19.48m,0000000001Hz,0000339703c,0000000.737s, 017.0C,00002191
2015-04-17 01:38:19 r, 19.38m,0000000002Hz,0000310686c,0000000.674s, 017.0C,00002191
2015-04-17 01:48:19 r, 19.56m,0000000001Hz,0000362992c,0000000.788s, 017.0C,00002191
2015-04-17 01:58:19 r, 19.65m,0000000001Hz,0000391569c,0000000.850s, 017.4C,00002191
2015-04-17 02:08:19 r, 19.52m,0000000002Hz,0000353493c,0000000.767s, 017.4C,00002191
2015-04-17 02:18:19 r, 20.00m,0000000001Hz,0000543899c,0000001.180s, 017.4C,00002191
2015-04-17 02:28:19 r, 20.07m,0000000001Hz,0000584653c,0000001.269s, 017.4C,00002191
2015-04-17 02:38:19 r, 20.32m,0000000001Hz,0000729765c,0000001.584s, 017.4C,00002191
2015-04-17 02:48:19 r, 20.57m,0000000001Hz,0000914889c,0000001.985s, 017.4C,00002191
2015-04-17 02:58:19 r, 20.45m,0000000001Hz,0000819659c,0000001.779s, 017.4C,00002191
2015-04-17 03:08:19 r, 20.79m,0000000000Hz,0001116960c,0000002.424s, 017.4C,00002191
2015-04-17 03:18:19 r, 20.83m,0000000000Hz,0001157906c,0000002.513s, 017.0C,00002191
2015-04-17 03:28:18 r, 20.88m,0000000000Hz,0001213679c,0000002.634s, 017.0C,00002191
2015-04-17 03:38:19 r, 20.92m,0000000000Hz,0001266383c,0000002.748s, 016.7C,00002191
2015-04-17 03:48:19 r, 20.90m,0000000000Hz,0001233482c,0000002.677s, 016.7C,00002191
2015-04-17 03:58:19 r, 20.90m,0000000000Hz,0001231321c,0000002.672s, 016.4C,00002191
2015-04-17 04:08:19 r, 20.86m,0000000000Hz,0001195871c,0000002.595s, 016.1C,00002191
2015-04-17 04:18:19 r, 20.80m,0000000001Hz,0001137612c,0000002.469s, 015.7C,00002191
2015-04-17 04:28:19 r, 20.83m,0000000000Hz,0001161216c,0000002.520s, 015.4C,00002191
2015-04-17 04:38:19 r, 20.78m,0000000001Hz,0001112311c,0000002.414s, 014.8C,00002191
2015-04-17 04:48:18 r, 20.75m,0000000000Hz,0001076451c,0000002.336s, 014.8C,00002191
2015-04-17 04:58:18 r, 20.55m,0000000000Hz,0000899613c,0000001.952s, 015.1C,00002191
2015-04-17 05:08:18 r, 20.15m,0000000001Hz,0000627739c,0000001.362s, 015.7C,00002191
2015-04-17 05:18:18 r, 19.34m,0000000001Hz,0000300363c,0000000.652s, 016.1C,00002191
2015-04-17 05:28:19 r, 18.21m,0000000004Hz,0000105957c,0000000.230s, 015.7C,00002191
2015-04-17 05:38:19 r, 16.89m,0000000015Hz,0000031108c,0000000.068s, 015.4C,00002191
2015-04-17 05:48:20 r, 15.22m,0000000069Hz,0000006692c,0000000.015s, 015.1C,00002191
2015-04-17 05:58:19 r, 13.26m,0000000421Hz,0000000000c,0000000.000s, 014.8C,00002191
2015-04-17 06:08:19 r, 11.30m,0000002547Hz,0000000000c,0000000.000s, 014.5C,00002191
2015-04-17 06:18:19 r, 09.50m,0000013438Hz,0000000000c,0000000.000s, 014.1C,00002191
2015-04-17 06:28:18 r, 08.09m,0000048929Hz,0000000000c,0000000.000s, 014.1C,00002191
2015-04-17 06:38:18 r, 07.12m,0000120313Hz,0000000000c,0000000.000s, 014.1C,00002191
2015-04-17 06:48:20 r, 06.46m,0000220604Hz,0000000000c,0000000.000s, 014.5C,00002191
2015-04-17 06:58:19 r, 05.99m,0000338225Hz,0000000000c,0000000.000s, 015.4C,00002191
2015-04-17 07:08:18 r, 00.00m,0000452629Hz,0000000000c,0000000.000s, 016.4C,00002191
2015-04-17 07:18:18 r, 00.00m,0000559307Hz,0000000000c,0000000.000s, 017.0C,00002191
2015-04-17 07:28:19 r, 00.00m,0000595201Hz,0000000000c,0000000.000s, 017.7C,00002191
2015-04-17 07:38:19 r, 00.00m,0000595195Hz,0000000000c,0000000.000s, 019.3C,00002191
2015-04-17 07:48:19 r, 00.00m,0000595201Hz,0000000000c,0000000.000s, 019.6C,00002191
2015-04-17 07:58:18 r, 00.00m,0000595030Hz,0000000000c,0000000.000s, 020.9C,00002191
2015-04-17 08:08:19 r, 00.00m,0000595109Hz,0000000000c,0000000.000s, 021.5C,00002191
2015-04-17 08:18:20 r, 00.00m,0000595047Hz,0000000000c,0000000.000s, 022.8C,00002191
2015-04-17 08:28:19 r, 00.00m,0000594810Hz,0000000000c,0000000.000s, 024.1C,00002191
2015-04-17 08:38:18 r, 00.00m,0000594638Hz,0000000000c,0000000.000s, 025.1C,00002191
2015-04-17 08:48:20 r, 00.00m,0000594505Hz,0000000000c,0000000.000s, 027.0C,00002191
2015-04-17 08:58:18 r, 00.00m,0000594359Hz,0000000000c,0000000.000s, 028.3C,00002191
2015-04-17 09:08:19 r, 00.00m,0000594146Hz,0000000000c,0000000.000s, 029.6C,00002191
2015-04-17 09:18:18 r, 00.00m,0000593979Hz,0000000000c,0000000.000s, 030.9C,00002191
2015-04-17 09:28:19 r, 00.00m,0000593893Hz,0000000000c,0000000.000s, 032.2C,00002191
2015-04-17 09:38:19 r, 00.00m,0000593762Hz,0000000000c,0000000.000s, 033.5C,00002191
2015-04-17 09:48:19 r, 00.00m,0000593711Hz,0000000000c,0000000.000s, 034.4C,00002191
2015-04-17 09:58:19 r, 00.00m,0000593514Hz,0000000000c,0000000.000s, 035.4C,00002191
2015-04-17 10:08:19 r, 00.00m,0000593442Hz,0000000000c,0000000.000s, 036.4C,00002191
2015-04-17 10:18:19 r, 00.00m,0000593305Hz,0000000000c,0000000.000s, 037.3C,00002191
2015-04-17 10:28:18 r, 00.00m,0000593183Hz,0000000000c,0000000.000s, 038.3C,00002191
2015-04-17 10:38:19 r, 00.00m,0000593104Hz,0000000000c,0000000.000s, 039.0C,00002191
2015-04-17 10:48:19 r, 00.00m,0000592971Hz,0000000000c,0000000.000s, 039.6C,00002191
2015-04-17 10:58:19 r, 00.00m,0000592892Hz,0000000000c,0000000.000s, 040.6C,00002191
2015-04-17 11:08:19 r, 00.00m,0000592660Hz,0000000000c,0000000.000s, 041.5C,00002191
2015-04-17 11:18:19 r, 00.00m,0000592560Hz,0000000000c,0000000.000s, 042.5C,00002191
2015-04-17 11:28:19 r, 00.00m,0000592490Hz,0000000000c,0000000.000s, 042.8C,00002191
2015-04-17 11:38:19 r, 00.00m,0000592498Hz,0000000000c,0000000.000s, 042.8C,00002191
2015-04-17 11:48:20 r, 00.00m,0000592427Hz,0000000000c,0000000.000s, 042.8C,00002191
2015-04-17 11:58:19 r, 00.00m,0000592467Hz,0000000000c,0000000.000s, 042.8C,00002191
2015-04-17 12:38:47 r, 00.00m,0000592633Hz,0000000000c,0000000.000s, 037.7C,00002191
2015-04-17 12:48:47 r, 00.00m,0000592481Hz,0000000000c,0000000.000s, 040.2C,00002191
2015-04-17 12:58:47 r, 00.00m,0000592421Hz,0000000000c,0000000.000s, 041.2C,00002191
2015-04-17 13:08:47 r, 00.00m,0000592315Hz,0000000000c,0000000.000s, 041.9C,00002191
2015-04-17 13:18:47 r, 00.00m,0000592271Hz,0000000000c,0000000.000s, 042.2C,00002191
2015-04-17 13:28:48 r, 00.00m,0000592287Hz,0000000000c,0000000.000s, 042.5C,00002191
2015-04-17 13:38:47 r, 00.00m,0000592141Hz,0000000000c,0000000.000s, 042.5C,00002191
2015-04-17 13:48:47 r, 00.00m,0000592193Hz,0000000000c,0000000.000s, 042.5C,00002191
2015-04-17 13:58:49 r, 00.00m,0000592170Hz,0000000000c,0000000.000s, 042.8C,00002191
2015-04-17 14:08:47 r, 00.00m,0000592115Hz,0000000000c,0000000.000s, 042.8C,00002191
2015-04-17 14:18:47 r, 00.00m,0000592020Hz,0000000000c,0000000.000s, 043.1C,00002191
2015-04-17 14:28:49 r, 00.00m,0000592106Hz,0000000000c,0000000.000s, 043.1C,00002191
2015-04-17 14:38:47 r, 00.00m,0000592095Hz,0000000000c,0000000.000s, 043.1C,00002191
2015-04-17 14:48:47 r, 00.00m,0000592108Hz,0000000000c,0000000.000s, 043.5C,00002191
2015-04-17 14:58:47 r, 00.00m,0000592166Hz,0000000000c,0000000.000s, 043.5C,00002191
2015-04-17 15:08:47 r, 00.00m,0000592184Hz,0000000000c,0000000.000s, 043.1C,00002191
2015-04-17 15:18:47 r, 00.00m,0000592125Hz,0000000000c,0000000.000s, 043.1C,00002191
2015-04-17 15:28:49 r, 00.00m,0000592248Hz,0000000000c,0000000.000s, 043.1C,00002191
2015-04-17 15:38:47 r, 00.00m,0000592242Hz,0000000000c,0000000.000s, 042.8C,00002191
2015-04-17 15:48:47 r, 00.00m,0000592338Hz,0000000000c,0000000.000s, 042.5C,00002191
2015-04-17 15:58:48 r, 00.00m,0000592401Hz,0000000000c,0000000.000s, 042.2C,00002191
2015-04-17 16:08:47 r, 00.00m,0000592430Hz,0000000000c,0000000.000s, 041.9C,00002191
2015-04-17 16:18:47 r, 00.00m,0000592500Hz,0000000000c,0000000.000s, 041.2C,00002191
2015-04-17 16:28:47 r, 00.00m,0000592532Hz,0000000000c,0000000.000s, 040.6C,00002191
2015-04-17 16:38:47 r, 00.00m,0000592634Hz,0000000000c,0000000.000s, 040.2C,00002191
2015-04-17 16:48:47 r, 00.00m,0000592662Hz,0000000000c,0000000.000s, 039.9C,00002191
2015-04-17 16:58:49 r, 00.00m,0000592757Hz,0000000000c,0000000.000s, 039.0C,00002191
2015-04-17 17:08:47 r, 00.00m,0000592863Hz,0000000000c,0000000.000s, 038.0C,00002191
2015-04-17 17:18:47 r, 00.00m,0000593046Hz,0000000000c,0000000.000s, 037.0C,00002191
2015-04-17 17:28:47 r, 00.00m,0000593067Hz,0000000000c,0000000.000s, 036.4C,00002191
2015-04-17 17:38:47 r, 00.00m,0000593271Hz,0000000000c,0000000.000s, 036.0C,00002191
2015-04-17 17:48:47 r, 00.00m,0000593302Hz,0000000000c,0000000.000s, 035.1C,00002191
2015-04-17 17:58:48 r, 00.00m,0000593361Hz,0000000000c,0000000.000s, 034.1C,00002191
2015-04-17 18:08:47 r, 00.00m,0000593543Hz,0000000000c,0000000.000s, 033.1C,00002191
2015-04-17 18:18:47 r, 00.00m,0000593621Hz,0000000000c,0000000.000s, 032.2C,00002191
2015-04-17 18:28:48 r, 00.00m,0000593642Hz,0000000000c,0000000.000s, 031.5C,00002191
2015-04-17 18:38:47 r, 00.00m,0000593801Hz,0000000000c,0000000.000s, 030.6C,00002191
2015-04-17 18:48:47 r, 00.00m,0000593912Hz,0000000000c,0000000.000s, 029.9C,00002191
2015-04-17 18:58:47 r, 00.00m,0000594026Hz,0000000000c,0000000.000s, 029.3C,00002191
2015-04-17 19:08:48 r, 00.00m,0000593992Hz,0000000000c,0000000.000s, 028.3C,00002191
2015-04-17 19:18:48 r, 00.00m,0000594067Hz,0000000000c,0000000.000s, 027.7C,00002191
2015-04-17 19:28:47 r, 00.00m,0000594261Hz,0000000000c,0000000.000s, 027.0C,00002191
2015-04-17 19:38:47 r, 00.00m,0000526525Hz,0000000000c,0000000.000s, 026.1C,00002191
2015-04-17 19:48:47 r, 00.00m,0000423912Hz,0000000000c,0000000.000s, 025.1C,00002191
2015-04-17 19:58:47 r, 06.04m,0000325587Hz,0000000000c,0000000.000s, 024.4C,00002191
2015-04-17 20:08:47 r, 06.47m,0000217790Hz,0000000000c,0000000.000s, 023.8C,00002191
2015-04-17 20:18:47 r, 07.12m,0000120017Hz,0000000000c,0000000.000s, 023.2C,00002191
2015-04-17 20:28:49 r, 08.07m,0000050099Hz,0000000000c,0000000.000s, 022.5C,00002191
2015-04-17 20:38:47 r, 09.44m,0000014167Hz,0000000000c,0000000.000s, 021.9C,00002191
2015-04-17 20:48:47 r, 11.23m,0000002730Hz,0000000000c,0000000.000s, 020.9C,00002191
2015-04-17 20:58:48 r, 13.21m,0000000439Hz,0000000000c,0000000.000s, 020.6C,00002191
2015-04-17 21:08:48 r, 15.21m,0000000069Hz,0000006677c,0000000.014s, 020.3C,00002191
2015-04-17 21:18:47 r, 16.87m,0000000015Hz,0000030690c,0000000.067s, 019.9C,00002191
2015-04-17 21:28:48 r, 18.19m,0000000005Hz,0000103722c,0000000.225s, 019.6C,00002191
2015-04-17 21:38:48 r, 19.32m,0000000001Hz,0000294601c,0000000.639s, 019.3C,00002191
2015-04-17 21:48:48 r, 20.17m,0000000001Hz,0000637154c,0000001.383s, 019.0C,00002191
2015-04-17 21:58:47 r, 20.65m,0000000000Hz,0000986292c,0000002.140s, 019.0C,00002191
2015-04-17 22:08:47 r, 20.85m,0000000001Hz,0001185443c,0000002.573s, 018.6C,00002191
2015-04-17 22:18:47 r, 20.92m,0000000001Hz,0001264300c,0000002.744s, 018.3C,00002191
2015-04-17 22:28:49 r, 20.95m,0000000000Hz,0001297983c,0000002.817s, 018.3C,00002191
2015-04-17 22:38:47 r, 20.97m,0000000000Hz,0001316807c,0000002.858s, 018.0C,00002191
2015-04-17 22:48:47 r, 20.98m,0000000000Hz,0001328262c,0000002.883s, 017.7C,00002191
2015-04-17 22:58:48 r, 20.99m,0000000001Hz,0001350413c,0000002.931s, 017.7C,00002191
2015-04-17 23:08:47 r, 21.01m,0000000000Hz,0001370288c,0000002.974s, 017.4C,00002191
2015-04-17 23:18:48 r, 21.02m,0000000000Hz,0001384389c,0000003.004s, 016.7C,00002191
2015-04-17 23:28:47 r, 21.03m,0000000001Hz,0001391669c,0000003.020s, 016.7C,00002191
2015-04-17 23:38:47 r, 21.04m,0000000000Hz,0001401775c,0000003.042s, 016.4C,00002191
2015-04-17 23:48:47 r, 21.05m,0000000000Hz,0001410911c,0000003.062s, 016.4C,00002191
2015-04-17 23:58:47 r, 21.06m,0000000000Hz,0001417778c,0000003.077s, 016.4C,00002191
